This is the latest recevied weather packets stored in our database for station/object KE0PRS. If no packets are shown the sender has not sent any weather packets the latest 10 day(s).
| Time | Temp. | Humidity | Pressure | Rain* | Wind** | Luminosity | Snow |
|---|---|---|---|---|---|---|---|
| 1777767389 | 21.67° C | 25% | 1017.8 hPa | 0 mm | - | 89 W/m² | - |
| 1777767086 | 22.22° C | 25% | 1017.9 hPa | 0 mm | - | 99 W/m² | - |
| 1777766784 | 22.22° C | 25% | 1018 hPa | 0 mm | - | 110 W/m² | - |
| 1777766481 | 22.22° C | 26% | 1018.1 hPa | 0 mm | - | 121 W/m² | - |
| 1777766177 | 22.78° C | 24% | 1018.1 hPa | 0 mm | - | 133 W/m² | - |
| 1777765875 | 23.33° C | 24% | 1018.2 hPa | 0 mm | - | 146 W/m² | - |
| 1777765576 | 23.33° C | 22% | 1018.2 hPa | 0 mm | - | 158 W/m² | - |
| 1777765274 | 23.33° C | 22% | 1018.2 hPa | 0 mm | - | 170 W/m² | - |
| 1777764969 | 23.33° C | 23% | 1018.2 hPa | 0 mm | - | 183 W/m² | - |
| 1777764666 | 23.33° C | 23% | 1018.2 hPa | 0 mm | - | 196 W/m² | - |
| 1777764362 | 23.89° C | 23% | 1018.2 hPa | 0 mm | - | 209 W/m² | - |
| 1777764060 | 23.33° C | 24% | 1018.3 hPa | 0 mm | - | 225 W/m² | - |
| 1777763757 | 23.33° C | 25% | 1018.2 hPa | 0 mm | - | 241 W/m² | - |
| 1777763455 | 23.33° C | 25% | 1018.3 hPa | 0 mm | - | 255 W/m² | - |
| 1777763153 | 23.33° C | 26% | 1018.3 hPa | 0 mm | - | 273 W/m² | - |
| 1777762851 | 22.78° C | 25% | 1018.4 hPa | 0 mm | - | 289 W/m² | - |
| 1777762546 | 22.78° C | 25% | 1018.2 hPa | 0 mm | - | 306 W/m² | - |
| 1777762243 | 22.78° C | 25% | 1018.5 hPa | 0 mm | - | 321 W/m² | - |
| 1777761939 | 22.78° C | 26% | 1018.6 hPa | 0 mm | - | 337 W/m² | - |
| 1777761636 | 21.67° C | 25% | 1018.5 hPa | 0 mm | - | 352 W/m² | - |
| 1777761334 | 22.22° C | 25% | 1018.6 hPa | 0 mm | - | 370 W/m² | - |
| 1777761033 | 22.78° C | 26% | 1018.5 hPa | 0 mm | - | 385 W/m² | - |
| 1777760729 | 23.33° C | 25% | 1018.7 hPa | 0 mm | - | 400 W/m² | - |
| 1777760426 | 23.33° C | 26% | 1018.6 hPa | 0 mm | - | 416 W/m² | - |
| 1777760121 | 23.33° C | 26% | 1019 hPa | 0 mm | - | 428 W/m² | - |
* Rain latest hour (hover to see other rain measurements)
** Current wind speed in m/s (hover to see current wind gust speed)